Weather in Pobedino

Russia / Kaliningrad Oblast     54°53′38″N   22°43′28″E
temp.,
°C
wind,
m/s
gust,
m/s
humid.,
%
clouds,
%
prec.,
mm/h
press.,
hPa
HPBL,
m
13 april, tue
tue1323:00+4wnw61091100 0.0 1020406
02:00+4wnw5993100 0.1 1021472
05:00+4nw4990100 0.3 1022532
08:00+4nnw3786100 0.4 1023571
11:00+5nnw3782100 0.9 1023848
14:00+4nnw4781100 2.1 1024699
17:00+5n3679100 1.4 1023798
20:00+3nw2281100 1.4 102344
14 april, wed
wed1423:00+2nw3784100 0.0 1022249
02:00+1nw3589100 0.0 1022147
05:00+1nnw369094 0.0 1021169
08:00+3nne3677100 0.0 1021379
11:00+7nne4660100 0.0 10211100
14:00+8nne5851100 0.0 10201687
17:00+7ne51065100 0.0 10201429
20:00+5nne61181100 0.3 1021898
15 april, thu
thu1523:00+3nne71491100 0.6 1020886
02:00+4nne71490100 0.9 1019793
05:00+4ne81487100 0.2 1019704
08:00+4ne71484100 0.8 1020643
11:00+5ne71384100 0.4 1021646
14:00+5ne61384100 1.1 1021637
17:00+7ne61375100 0.3 1021738
20:00+6ne41178100 0.3 1021359
16 april, fri
fri1623:00+6nne41173100 0.0 1021408
02:00+5nne61271100 0.0 1020556
05:00+4nne51283100 0.5 1020538
08:00+3nne51188100 1.4 1020571
11:00+5ne61189100 0.3 1020623
14:00+6ne5109198 0.3 1020564
17:00+9ne51084100 0.0 1020860
20:00+9ene51186100 0.0 1021591
17 april, sat
sat1723:00+8ne51188100 0.0 1021484
02:00+8ne51189100 0.0 1021444
05:00+7ne51189100 0.1 1021408
08:00+7ne51085100 0.1 1022459
11:00+7ne5990100 0.4 1023490
14:00+11ene577862 0.4 1023784
17:00+11ne5978100 0.1 1023562
20:00+10ene51282100 0.1 1024517